Weather History for PHKO - February, 2014

Change the Weather History Date:

Sunday, February 2, 2014

  Actual Average Record
Temperature  
Mean Temperature 76 °F -  
Max Temperature 79 °F 79 °F 87 °F (1986)
Min Temperature 73 °F 66 °F 61 °F (1985)
Cooling Degree Days 11    
Growing Degree Days 26 (Base 50)    
Moisture  
Dew Point 68 °F    
Average Humidity 76    
Maximum Humidity 94    
Minimum Humidity 68    
Precipitation  
Precipitation 0.03 in - - ()
Sea Level Pressure  
Sea Level Pressure 29.91 in    
Wind  
Wind Speed 10 mph (WNW)    
Max Wind Speed 16 mph    
Max Gust Speed -    
Visibility 10 miles    
Events Rain    
Averages and records for this station are not official NWS values.
T = Trace of Precipitation, MM = Missing Value Source: NWS Daily Summary

Daily Weather History Graph

Daily Weather History Graph

Search for Another Location

Airport or City:

Trip Planner

Search our weather history database for the weather conditions in past years. The results will help you decide how hot, cold, wet, or windy it might be!

Date:

Astronomy

Feb. 02, 2014 Rise Set
Actual Time 6:58 AM HST 6:17 PM HST
Civil Twilight 6:36 AM HST 6:40 PM HST
Nautical Twilight 6:09 AM HST 7:06 PM HST
Astronomical Twilight 5:43 AM HST 7:32 PM HST
Moon 9:05 AM HST (2/2) 9:35 PM HST (2/2)
Length of Visible Light 12h 04m
Length of Day
11h 18m
Waxing Crescent, 13% of the Moon is Illuminated
Feb 2
Waxing Crescent
Feb 6
First Quarter
Feb 14
Full
Feb 22
Last Quarter
Feb 28
New

Hourly Weather History & Observations

Time (HST) Temp. Dew Point Humidity Pressure Visibility Wind Dir Wind Speed Gust Speed Precip Events Conditions
12:53 AM 73.0 °F 63.0 °F 71% 29.89 in 10.0 mi SSE 9.2 mph - N/A   Clear
1:53 AM 73.0 °F 62.1 °F 68% 29.89 in 10.0 mi SSE 10.4 mph - N/A   Partly Cloudy
2:53 AM 73.0 °F 63.0 °F 71% 29.87 in 10.0 mi SSE 10.4 mph - N/A   Partly Cloudy
3:53 AM 75.0 °F 64.9 °F 71% 29.86 in 10.0 mi SSE 9.2 mph - N/A   Overcast
4:53 AM 75.9 °F 68.0 °F 76% 29.87 in 10.0 mi South 9.2 mph - N/A   Overcast
5:53 AM 73.9 °F 64.9 °F 73% 29.89 in 10.0 mi SE 6.9 mph - N/A   Overcast
6:45 AM 73.4 °F 69.8 °F 88% 29.91 in 8.0 mi WSW 10.4 mph - 0.00 in Rain Rain
6:53 AM 73.9 °F 70.0 °F 87% 29.91 in 10.0 mi West 8.1 mph - 0.00 in Rain Light Rain
7:53 AM 73.9 °F 71.1 °F 91% 29.92 in 10.0 mi WNW 6.9 mph - 0.02 in Rain Light Rain
8:16 AM 73.4 °F 71.6 °F 94% 29.92 in 10.0 mi WNW 8.1 mph - 0.00 in Rain Light Rain
8:53 AM 73.9 °F 71.1 °F 91% 29.94 in 10.0 mi WSW 5.8 mph - 0.01 in Rain Light Rain
9:03 AM 73.4 °F 69.8 °F 88% 29.93 in 10.0 mi WSW 4.6 mph - 0.00 in   Overcast
9:53 AM 75.0 °F 70.0 °F 84% 29.94 in 10.0 mi West 8.1 mph - 0.00 in   Overcast
10:09 AM 75.2 °F 69.8 °F 83% 29.94 in 10.0 mi West 6.9 mph - N/A   Overcast
10:53 AM 77.0 °F 69.1 °F 76% 29.94 in 10.0 mi West 9.2 mph - N/A   Overcast
11:53 AM 77.0 °F 70.0 °F 79% 29.92 in 10.0 mi West 12.7 mph - N/A   Overcast
12:09 PM 77.0 °F 69.8 °F 78% 29.91 in 10.0 mi West 16.1 mph - N/A   Overcast
12:53 PM 79.0 °F 69.1 °F 72% 29.90 in 10.0 mi West 16.1 mph - N/A   Overcast
1:00 PM 78.8 °F 69.8 °F 74% 29.89 in 10.0 mi West 16.1 mph - N/A   Mostly Cloudy
1:41 PM 78.8 °F 69.8 °F 74% 29.88 in 10.0 mi West 15.0 mph - N/A   Mostly Cloudy
1:53 PM 79.0 °F 69.1 °F 72% 29.88 in 10.0 mi West 15.0 mph - N/A   Mostly Cloudy
2:38 PM 77.0 °F 68.0 °F 74% 29.87 in 10.0 mi WNW 10.4 mph - N/A   Overcast
2:51 PM 77.0 °F 68.0 °F 74% 29.87 in 10.0 mi NW 8.1 mph - N/A   Overcast
2:53 PM 77.0 °F 68.0 °F 74% 29.88 in 10.0 mi NW 8.1 mph - N/A   Overcast
3:07 PM 78.8 °F 68.0 °F 69% 29.87 in 10.0 mi NNW 6.9 mph - N/A   Overcast
3:27 PM 77.0 °F 68.0 °F 74% 29.87 in 10.0 mi NNW 9.2 mph - N/A   Overcast
3:53 PM 77.0 °F 66.9 °F 71% 29.88 in 10.0 mi North 9.2 mph - N/A   Overcast
4:37 PM 77.0 °F 66.2 °F 69% 29.89 in 10.0 mi NE 9.2 mph - N/A   Overcast
4:53 PM 77.0 °F 66.9 °F 71% 29.89 in 10.0 mi North 10.4 mph - N/A   Overcast
5:53 PM 75.9 °F 66.0 °F 71% 29.91 in 10.0 mi NNE 10.4 mph - N/A   Overcast
6:53 PM 75.9 °F 66.0 °F 71% 29.93 in 10.0 mi North 12.7 mph - N/A   Overcast
7:53 PM 75.0 °F 66.0 °F 73% 29.94 in 10.0 mi NNE 13.8 mph - N/A   Overcast
8:53 PM 75.0 °F 66.0 °F 73% 29.95 in 10.0 mi North 12.7 mph - N/A   Overcast
9:53 PM 75.9 °F 66.0 °F 71% 29.96 in 10.0 mi North 9.2 mph - N/A   Overcast
10:53 PM 73.9 °F 66.9 °F 79% 29.97 in 10.0 mi NNE 12.7 mph - 0.00 in   Overcast
11:53 PM 73.9 °F 66.0 °F 76% 29.95 in 10.0 mi North 11.5 mph - N/A   Overcast